| time (UTC) | temp F | wind direction | speed MPH | gust MPH | rain 1hr in | rain 24hr in | rain mn in | humidity % | barometer mb |
| 20260503231000 | 66 | 297 | 2.0 | 4.0 | 0.00 | 0.00 | 0.00 | 61 | 1016.8 |
| 20260503230457 | 67 | 283 | 1.0 | 4.0 | 0.00 | 0.00 | 0.00 | 60 | 1017.2 |
| 20260503225954 | 66 | 279 | 0.0 | 3.0 | 0.00 | 0.00 | 0.00 | 60 | 1017.1 |
| 20260503225451 | 67 | 265 | 3.0 | 5.0 | 0.00 | 0.00 | 0.00 | 59 | 1017.3 |
| 20260503224946 | 67 | 296 | 3.0 | 7.0 | 0.00 | 0.00 | 0.00 | 59 | 1017.0 |
| 20260503224444 | 67 | 254 | 3.0 | 7.0 | 0.00 | 0.00 | 0.00 | 60 | 1017.2 |
| 20260503223942 | 65 | 273 | 3.0 | 3.0 | 0.00 | 0.00 | 0.00 | 60 | 1017.1 |
| 20260503223439 | 67 | 347 | 3.0 | 4.0 | 0.00 | 0.00 | 0.00 | 59 | 1017.2 |
| 20260503222934 | 67 | 221 | 2.0 | 5.0 | 0.00 | 0.00 | 0.00 | 60 | 1017.4 |
| 20260503222433 | 68 | 243 | 2.0 | 5.0 | 0.00 | 0.00 | 0.00 | 58 | 1017.3 |
| 20260503221931 | 68 | 215 | 1.0 | 4.0 | 0.00 | 0.00 | 0.00 | 57 | 1017.3 |
| 20260503221429 | 68 | 270 | 2.0 | 3.0 | 0.00 | 0.00 | 0.00 | 56 | 1017.4 |
| 20260503220926 | 69 | 263 | 3.0 | 4.0 | 0.00 | 0.00 | 0.00 | 55 | 1017.5 |
| 20260503220422 | 68 | 282 | 2.0 | 5.0 | 0.00 | 0.00 | 0.00 | 54 | 1017.4 |
| 20260503215919 | 68 | 215 | 0.0 | 6.0 | 0.00 | 0.00 | 0.00 | 56 | 1017.5 |
| 20260503215416 | 69 | 206 | 1.0 | 6.0 | 0.00 | 0.00 | 0.00 | 56 | 1017.4 |
| 20260503214914 | 66 | 258 | 2.0 | 2.0 | 0.00 | 0.00 | 0.00 | 57 | 1017.5 |
| 20260503214411 | 68 | 207 | 5.0 | 6.0 | 0.00 | 0.00 | 0.00 | 57 | 1017.7 |
| 20260503213908 | 69 | 206 | 2.0 | 8.0 | 0.00 | 0.00 | 0.00 | 56 | 1017.5 |
| 20260503213406 | 68 | 253 | 2.0 | 4.0 | 0.00 | 0.00 | 0.00 | 56 | 1017.5 |
| 20260503212902 | 68 | 300 | 2.0 | 5.0 | 0.00 | 0.00 | 0.00 | 57 | 1017.7 |
| 20260503212400 | 69 | 221 | 4.0 | 4.0 | 0.00 | 0.00 | 0.00 | 55 | 1017.7 |
| 20260503211857 | 68 | 232 | 3.0 | 4.0 | 0.00 | 0.00 | 0.00 | 56 | 1017.6 |
| 20260503211354 | 68 | 213 | 4.0 | 5.0 | 0.00 | 0.00 | 0.00 | 56 | 1017.7 |
| 20260503210849 | 68 | 286 | 0.0 | 2.0 | 0.00 | 0.00 | 0.00 | 58 | 1017.6 |
| 20260503210347 | 68 | 276 | 5.0 | 5.0 | 0.00 | 0.00 | 0.00 | 56 | 1017.8 |
| 20260503205841 | 68 | 260 | 2.0 | 6.0 | 0.00 | 0.00 | 0.00 | 58 | 1017.8 |
| 20260503205339 | 69 | 282 | 5.0 | 5.0 | 0.00 | 0.00 | 0.00 | 57 | 1017.6 |
| 20260503204835 | 67 | 270 | 0.0 | 3.0 | 0.00 | 0.00 | 0.00 | 59 | 1017.5 |
| 20260503204332 | 68 | 231 | 2.0 | 6.0 | 0.00 | 0.00 | 0.00 | 58 | 1017.8 |
| 20260503203829 | 68 | 219 | 3.0 | 6.0 | 0.00 | 0.00 | 0.00 | 57 | 1017.6 |
| 20260503203327 | 67 | 212 | 0.0 | 3.0 | 0.00 | 0.00 | 0.00 | 58 | 1017.8 |
| 20260503202823 | 68 | 209 | 1.0 | 4.0 | 0.00 | 0.00 | 0.00 | 59 | 1017.5 |
| 20260503202322 | 67 | 239 | 4.0 | 4.0 | 0.00 | 0.00 | 0.00 | 59 | 1017.9 |
| 20260503201820 | 67 | 234 | 0.0 | 4.0 | 0.00 | 0.00 | 0.00 | 60 | 1017.7 |
| 20260503201316 | 67 | 285 | 0.0 | 3.0 | 0.00 | 0.00 | 0.00 | 60 | 1017.8 |
| 20260503200814 | 67 | 283 | 1.0 | 4.0 | 0.00 | 0.00 | 0.00 | 59 | 1018.0 |
| 20260503200309 | 67 | 270 | 1.0 | 5.0 | 0.00 | 0.00 | 0.00 | 60 | 1017.9 |
| 20260503195807 | 66 | 208 | 0.0 | 3.0 | 0.00 | 0.00 | 0.00 | 59 | 1018.0 |
| 20260503195304 | 67 | 244 | 3.0 | 4.0 | 0.00 | 0.00 | 0.00 | 60 | 1018.0 |
| 20260503194801 | 67 | 270 | 1.0 | 2.0 | 0.00 | 0.00 | 0.00 | 60 | 1017.7 |
| 20260503194256 | 67 | 213 | 3.0 | 4.0 | 0.00 | 0.00 | 0.00 | 61 | 1018.2 |
| 20260503193753 | 67 | 227 | 0.0 | 4.0 | 0.00 | 0.00 | 0.00 | 61 | 1018.2 |
| 20260503193249 | 66 | 228 | 0.0 | 4.0 | 0.00 | 0.00 | 0.00 | 62 | 1018.3 |
| 20260503192745 | 66 | 257 | 2.0 | 3.0 | 0.00 | 0.00 | 0.00 | 61 | 1018.4 |
| 20260503192240 | 64 | 105 | 0.0 | 2.0 | 0.00 | 0.00 | 0.00 | 63 | 1018.4 |
| 20260503191737 | 64 | 254 | 0.0 | 2.0 | 0.00 | 0.00 | 0.00 | 62 | 1018.5 |
| 20260503191234 | 64 | 106 | 0.0 | 2.0 | 0.00 | 0.00 | 0.00 | 63 | 1018.6 |
| 20260503190731 | 65 | 282 | 0.0 | 3.0 | 0.00 | 0.00 | 0.00 | 63 | 1018.6 |
| 20260503190228 | 65 | 225 | 0.0 | 2.0 | 0.00 | 0.00 | 0.00 | 63 | 1018.6 |
| 20260503185725 | 64 | 233 | 0.0 | 3.0 | 0.00 | 0.00 | 0.00 | 64 | 1018.7 |
| 20260503185221 | 64 | 221 | 0.0 | 2.0 | 0.00 | 0.00 | 0.00 | 64 | 1018.5 |
| 20260503184715 | 64 | 243 | 0.0 | 3.0 | 0.00 | 0.00 | 0.00 | 65 | 1018.6 |
| 20260503184212 | 65 | 214 | 3.0 | 4.0 | 0.00 | 0.00 | 0.00 | 65 | 1018.7 |
| 20260503183708 | 64 | 243 | 0.0 | 3.0 | 0.00 | 0.00 | 0.00 | 65 | 1019.0 |
| 20260503183206 | 64 | 255 | 0.0 | 2.0 | 0.00 | 0.00 | 0.00 | 64 | 1018.8 |
| 20260503182704 | 64 | 249 | 0.0 | 2.0 | 0.00 | 0.00 | 0.00 | 65 | 1019.0 |
| 20260503182202 | 63 | 250 | 0.0 | 2.0 | 0.00 | 0.00 | 0.00 | 67 | 1018.9 |
| 20260503181658 | 63 | 276 | 2.0 | 3.0 | 0.00 | 0.00 | 0.00 | 68 | 1019.0 |
| 20260503181155 | 64 | 233 | 0.0 | 3.0 | 0.00 | 0.00 | 0.00 | 67 | 1018.8 |
| 20260503180652 | 63 | 237 | 0.0 | 3.0 | 0.00 | 0.00 | 0.00 | 68 | 1018.8 |
| 20260503180150 | 63 | 261 | 0.0 | 5.0 | 0.00 | 0.00 | 0.00 | 68 | 1018.8 |
| 20260503175647 | 64 | 270 | 3.0 | 5.0 | 0.00 | 0.00 | 0.00 | 68 | 1018.9 |
| 20260503175144 | 64 | 270 | 0.0 | 2.0 | 0.00 | 0.00 | 0.00 | 69 | 1018.7 |
| 20260503174640 | 64 | 270 | 2.0 | 3.0 | 0.00 | 0.00 | 0.00 | 69 | 1018.9 |
| 20260503174138 | 63 | 270 | 0.0 | 3.0 | 0.00 | 0.00 | 0.00 | 70 | 1018.8 |
| 20260503173632 | 63 | 270 | 0.0 | 2.0 | 0.00 | 0.00 | 0.00 | 70 | 1018.8 |
| 20260503173130 | 64 | 210 | 0.0 | 3.0 | 0.00 | 0.00 | 0.00 | 69 | 1018.8 |
| 20260503172627 | 63 | 261 | 0.0 | 0.0 | 0.00 | 0.00 | 0.00 | 70 | 1018.7 |
| 20260503172124 | 63 | 260 | 0.0 | 3.0 | 0.00 | 0.00 | 0.00 | 71 | 1018.8 |
| 20260503171620 | 63 | 243 | 0.0 | 2.0 | 0.00 | 0.00 | 0.00 | 72 | 1018.6 |
| 20260503171117 | 62 | 237 | 0.0 | 2.0 | 0.00 | 0.00 | 0.00 | 73 | 1018.8 |
| 20260503170615 | 63 | 255 | 0.0 | 2.0 | 0.00 | 0.00 | 0.00 | 72 | 1018.4 |
| 20260503170111 | 63 | 240 | 0.0 | 2.0 | 0.00 | 0.00 | 0.00 | 72 | 1018.6 |
| 20260503151006 | 61 | 114 | 0.0 | 2.0 | 0.00 | 0.00 | 0.00 | 83 | 1018.1 |
| 20260503150503 | 61 | 99 | 0.0 | 0.0 | 0.00 | 0.00 | 0.00 | 84 | 1018.1 |
| 20260503131356 | 60 | 221 | 0.0 | 2.0 | 0.00 | 0.00 | 0.00 | 88 | 1017.3 |
| 20260503130853 | 60 | 215 | 0.0 | 0.0 | 0.00 | 0.00 | 0.00 | 88 | 1017.1 |
| 20260503130350 | 60 | 215 | 0.0 | 0.0 | 0.00 | 0.00 | 0.00 | 88 | 1017.0 |
| 20260503110744 | 59 | 270 | 0.0 | 3.0 | 0.00 | 0.00 | 0.00 | 92 | 1016.9 |
| 20260503110241 | 59 | 263 | 0.0 | 2.0 | 0.00 | 0.00 | 0.00 | 91 | 1016.8 |
| 20260503100207 | 61 | 270 | 0.0 | 0.0 | 0.00 | 0.00 | 0.00 | 84 | 1016.8 |
| 20260503090132 | 61 | 215 | 1.0 | 2.0 | 0.00 | 0.00 | 0.00 | 86 | 1017.6 |
| 20260503081602 | 61 | 263 | 3.0 | 4.0 | 0.00 | 0.00 | 0.00 | 85 | 1017.7 |
| 20260503081059 | 61 | 216 | 0.0 | 2.0 | 0.00 | 0.00 | 0.00 | 86 | 1017.3 |
| 20260503080555 | 61 | 240 | 0.0 | 2.0 | 0.00 | 0.00 | 0.00 | 86 | 1017.5 |
| 20260503072529 | 61 | 215 | 0.0 | 1.0 | 0.00 | 0.00 | 0.00 | 89 | 1017.4 |
| 20260503072026 | 61 | 270 | 0.0 | 2.0 | 0.00 | 0.00 | 0.00 | 89 | 1017.3 |
| 20260503071523 | 61 | 220 | 2.0 | 2.0 | 0.00 | 0.00 | 0.00 | 89 | 1016.9 |
| 20260503071020 | 61 | 270 | 0.0 | 2.0 | 0.00 | 0.00 | 0.00 | 89 | 1017.0 |
| 20260503070516 | 61 | 270 | 0.0 | 0.0 | 0.00 | 0.00 | 0.00 | 89 | 1016.9 |
| 20260503054940 | 60 | 277 | 0.0 | 2.0 | 0.00 | 0.00 | 0.00 | 90 | 1017.1 |
| 20260503054436 | 60 | 254 | 0.0 | 2.0 | 0.00 | 0.00 | 0.00 | 90 | 1016.9 |
| 20260503053934 | 60 | 315 | 0.0 | 2.0 | 0.00 | 0.00 | 0.00 | 90 | 1016.9 |
| 20260503053432 | 60 | 301 | 2.0 | 3.0 | 0.00 | 0.00 | 0.00 | 89 | 1017.0 |
| 20260503052928 | 61 | 327 | 2.0 | 3.0 | 0.00 | 0.00 | 0.00 | 89 | 1016.9 |
| 20260503052425 | 61 | 290 | 2.0 | 3.0 | 0.00 | 0.00 | 0.00 | 88 | 1017.1 |
| 20260503051921 | 61 | 337 | 0.0 | 2.0 | 0.00 | 0.00 | 0.00 | 88 | 1017.2 |
| 20260503051417 | 61 | 221 | 0.0 | 3.0 | 0.00 | 0.00 | 0.00 | 87 | 1017.3 |
| 20260503050915 | 61 | 303 | 2.0 | 3.0 | 0.00 | 0.00 | 0.00 | 87 | 1017.1 |
| 20260503050410 | 61 | 261 | 0.0 | 3.0 | 0.00 | 0.00 | 0.00 | 87 | 1017.1 |
| 20260503045908 | 61 | 237 | 2.0 | 2.0 | 0.00 | 0.00 | 0.00 | 87 | 1016.9 |
| 20260503045406 | 61 | 243 | 3.0 | 3.0 | 0.00 | 0.00 | 0.00 | 86 | 1016.9 |
| 20260503044902 | 62 | 254 | 1.0 | 2.0 | 0.00 | 0.00 | 0.00 | 86 | 1016.8 |
| 20260503044359 | 62 | 264 | 0.0 | 3.0 | 0.00 | 0.00 | 0.00 | 86 | 1016.9 |
| 20260503043856 | 62 | 261 | 0.0 | 4.0 | 0.00 | 0.00 | 0.00 | 85 | 1016.7 |
| 20260503043353 | 62 | 253 | 0.0 | 2.0 | 0.00 | 0.00 | 0.00 | 85 | 1016.9 |
| 20260503042849 | 62 | 357 | 2.0 | 4.0 | 0.00 | 0.00 | 0.00 | 85 | 1016.7 |
| 20260503042346 | 62 | 228 | 2.0 | 2.0 | 0.00 | 0.00 | 0.00 | 85 | 1016.6 |
| 20260503041842 | 62 | 244 | 3.0 | 3.0 | 0.00 | 0.00 | 0.00 | 84 | 1016.6 |
| 20260503041340 | 63 | 283 | 1.0 | 2.0 | 0.00 | 0.00 | 0.00 | 84 | 1016.2 |
| 20260503040837 | 63 | 254 | 1.0 | 2.0 | 0.00 | 0.00 | 0.00 | 84 | 1016.3 |
| 20260503040335 | 63 | 326 | 0.0 | 2.0 | 0.00 | 0.00 | 0.00 | 84 | 1016.1 |
| 20260503035831 | 63 | 261 | 0.0 | 2.0 | 0.00 | 0.00 | 0.00 | 83 | 1016.3 |
| 20260503035328 | 63 | 261 | 0.0 | 0.0 | 0.00 | 0.00 | 0.00 | 83 | 1016.1 |
| 20260503034826 | 63 | 255 | 1.0 | 2.0 | 0.00 | 0.00 | 0.00 | 83 | 1016.1 |
| 20260503034323 | 63 | 331 | 0.0 | 2.0 | 0.00 | 0.00 | 0.00 | 83 | 1015.9 |
| 20260503033820 | 63 | 275 | 0.0 | 2.0 | 0.00 | 0.00 | 0.00 | 82 | 1015.6 |
| 20260503033318 | 63 | 337 | 0.0 | 1.0 | 0.00 | 0.00 | 0.00 | 82 | 1015.7 |
| 20260503032815 | 64 | 264 | 1.0 | 3.0 | 0.00 | 0.00 | 0.00 | 82 | 1015.6 |
| 20260503032314 | 64 | 264 | 0.0 | 3.0 | 0.00 | 0.00 | 0.00 | 82 | 1015.5 |
| 20260503031811 | 64 | 337 | 0.0 | 2.0 | 0.00 | 0.00 | 0.00 | 81 | 1015.4 |
| 20260503031309 | 64 | 334 | 1.0 | 3.0 | 0.00 | 0.00 | 0.00 | 81 | 1015.6 |
| 20260503030805 | 64 | 240 | 1.0 | 3.0 | 0.00 | 0.00 | 0.00 | 80 | 1015.4 |
| 20260503030301 | 64 | 255 | 0.0 | 3.0 | 0.00 | 0.00 | 0.00 | 80 | 1015.5 |
| 20260503025758 | 65 | 252 | 2.0 | 3.0 | 0.00 | 0.00 | 0.00 | 79 | 1015.4 |
| 20260503025255 | 65 | 253 | 0.0 | 3.0 | 0.00 | 0.00 | 0.00 | 78 | 1014.8 |
| 20260503024752 | 65 | 262 | 1.0 | 3.0 | 0.00 | 0.00 | 0.00 | 78 | 1015.0 |
| 20260503024249 | 66 | 247 | 0.0 | 3.0 | 0.00 | 0.00 | 0.00 | 77 | 1014.8 |
| 20260503023746 | 66 | 270 | 2.0 | 3.0 | 0.00 | 0.00 | 0.00 | 76 | 1015.0 |
| 20260503023243 | 66 | 255 | 0.0 | 4.0 | 0.00 | 0.00 | 0.00 | 75 | 1014.7 |
| 20260503022739 | 67 | 250 | 2.0 | 4.0 | 0.00 | 0.00 | 0.00 | 75 | 1014.8 |
| 20260503022234 | 67 | 259 | 3.0 | 4.0 | 0.00 | 0.00 | 0.00 | 73 | 1014.6 |
| 20260503021731 | 68 | 253 | 2.0 | 4.0 | 0.00 | 0.00 | 0.00 | 72 | 1014.5 |
| 20260503021227 | 69 | 285 | 1.0 | 3.0 | 0.00 | 0.00 | 0.00 | 71 | 1014.6 |
| 20260503020725 | 69 | 265 | 0.0 | 4.0 | 0.00 | 0.00 | 0.00 | 70 | 1014.3 |
| 20260503020222 | 69 | 228 | 2.0 | 5.0 | 0.00 | 0.00 | 0.00 | 70 | 1014.2 |
| 20260503015719 | 69 | 280 | 3.0 | 4.0 | 0.00 | 0.00 | 0.00 | 69 | 1014.5 |
| 20260503015216 | 69 | 261 | 0.0 | 4.0 | 0.00 | 0.00 | 0.00 | 70 | 1014.5 |
| 20260503014711 | 69 | 275 | 0.0 | 3.0 | 0.00 | 0.00 | 0.00 | 70 | 1014.4 |
| 20260503014210 | 69 | 248 | 2.0 | 3.0 | 0.00 | 0.00 | 0.00 | 70 | 1014.6 |
| 20260503013706 | 69 | 254 | 0.0 | 4.0 | 0.00 | 0.00 | 0.00 | 70 | 1014.5 |
| 20260503013204 | 70 | 327 | 2.0 | 4.0 | 0.00 | 0.00 | 0.00 | 69 | 1014.5 |
| 20260503012702 | 69 | 281 | 3.0 | 4.0 | 0.00 | 0.00 | 0.00 | 69 | 1014.3 |
| 20260503012158 | 70 | 334 | 0.0 | 5.0 | 0.00 | 0.00 | 0.00 | 69 | 1014.3 |
| 20260503011654 | 70 | 254 | 3.0 | 5.0 | 0.00 | 0.00 | 0.00 | 68 | 1014.4 |
| 20260503011152 | 71 | 242 | 3.0 | 3.0 | 0.00 | 0.00 | 0.00 | 67 | 1014.2 |
| 20260503010648 | 71 | 239 | 0.0 | 4.0 | 0.00 | 0.00 | 0.00 | 66 | 1014.4 |
| 20260503010145 | 71 | 345 | 0.0 | 4.0 | 0.00 | 0.00 | 0.00 | 65 | 1014.4 |
| 20260503005642 | 71 | 237 | 0.0 | 3.0 | 0.00 | 0.00 | 0.00 | 65 | 1014.2 |
| 20260503005139 | 70 | 270 | 0.0 | 3.0 | 0.00 | 0.00 | 0.00 | 65 | 1014.5 |
| 20260503004636 | 71 | 248 | 3.0 | 4.0 | 0.00 | 0.00 | 0.00 | 63 | 1014.3 |
| 20260503004134 | 71 | 264 | 1.0 | 4.0 | 0.00 | 0.00 | 0.00 | 65 | 1014.3 |
| 20260503003631 | 72 | 246 | 6.0 | 6.0 | 0.00 | 0.00 | 0.00 | 64 | 1014.3 |
| 20260503003128 | 72 | 270 | 0.0 | 7.0 | 0.00 | 0.00 | 0.00 | 65 | 1014.4 |
| 20260503002625 | 72 | 247 | 5.0 | 5.0 | 0.00 | 0.00 | 0.00 | 63 | 1014.5 |
| 20260503002122 | 72 | 240 | 0.0 | 5.0 | 0.00 | 0.00 | 0.00 | 63 | 1014.5 |
| 20260503001618 | 72 | 270 | 0.0 | 5.0 | 0.00 | 0.00 | 0.00 | 64 | 1014.4 |
| 20260503001115 | 71 | 304 | 2.0 | 4.0 | 0.00 | 0.00 | 0.00 | 63 | 1014.7 |
| 20260503000612 | 73 | 10 | 0.0 | 3.0 | 0.00 | 0.00 | 0.00 | 62 | 1014.5 |
| 20260503000109 | 71 | 349 | 2.0 | 4.0 | 0.00 | 0.00 | 0.00 | 64 | 1014.5 |
| 20260502235606 | 71 | 228 | 2.0 | 5.0 | 0.00 | 0.00 | 0.00 | 64 | 1014.6 |
| 20260502235104 | 71 | 0 | 0.0 | 5.0 | 0.00 | 0.00 | 0.00 | 64 | 1014.4 |
| 20260502234559 | 71 | 284 | 3.0 | 4.0 | 0.00 | 0.00 | 0.00 | 64 | 1014.4 |
| 20260502234058 | 71 | 265 | 2.0 | 3.0 | 0.00 | 0.00 | 0.00 | 64 | 1014.4 |
| 20260502233558 | 72 | 0 | 2.0 | 4.0 | 0.00 | 0.00 | 0.00 | 63 | 1014.6 |
| 20260502233055 | 72 | 221 | 2.0 | 5.0 | 0.00 | 0.00 | 0.00 | 63 | 1014.8 |
| 20260502232551 | 70 | 288 | 0.0 | 8.0 | 0.00 | 0.00 | 0.00 | 66 | 1014.6 |
| 20260502232049 | 72 | 276 | 2.0 | 4.0 | 0.00 | 0.00 | 0.00 | 63 | 1014.5 |
| 20260502231545 | 71 | 270 | 1.0 | 5.0 | 0.00 | 0.00 | 0.00 | 64 | 1014.6 |
| 20260502231043 | 73 | 8 | 2.0 | 5.0 | 0.00 | 0.00 | 0.00 | 62 | 1014.8 |